When you browse on this site, cookies collect data to enhance your experience and personalize the content and advertising you see.
Visit our Privacy Policy to learn more. By continuing to use the site, you agree to this use of cookies and data.
  • In Slovakia
  • List of Countries
  • For 7 days
  • Water Temperature
  • Satellite Maps
  • Weather Map
  • Weather Widgets
  • user-avatar
    Login

    Hourly Weather Bratislava

    Today, 18 January, Friday

    Time Temperature Precipitation Wind Pressure Humidity
    00:00 +4°C° 0.2 mm 2 mps 743 mmHg 81%
    01:00 +4°C° 0 mm 2 mps 743 mmHg 85%
    02:00 +3°C° 0 mm 3 mps 744 mmHg 81%
    03:00 +3°C° 0 mm 3 mps 744 mmHg 77%
    04:00 +3°C° 0 mm 4 mps 744 mmHg 74%
    05:00 +3°C° 0.1 mm 3 mps 745 mmHg 75%
    06:00 +2°C° 0.1 mm 3 mps 745 mmHg 76%
    07:00 +3°C° 0 mm 2 mps 746 mmHg 80%
    08:00 +2°C° 0.1 mm 3 mps 746 mmHg 77%
    09:00 +1°C° 0.1 mm 4 mps 747 mmHg 75%
    10:00 +1°C° 0.1 mm 4 mps 747 mmHg 72%
    11:00 +2°C° 0 mm 5 mps 748 mmHg 67%
    12:00 +2°C° 0 mm 5 mps 748 mmHg 62%
    13:00 +2°C° 0 mm 6 mps 749 mmHg 57%
    14:00 +2°C° 0 mm 5 mps 749 mmHg 59%
    15:00 +1°C° 0 mm 4 mps 749 mmHg 61%
    16:00 +1°C° 0 mm 4 mps 750 mmHg 62%
    17:00 0°C° 0 mm 4 mps 750 mmHg 65%
    18:00 0°C° 0 mm 3 mps 751 mmHg 67%
    19:00 -1°C° 0 mm 3 mps 751 mmHg 69%
    20:00 -2°C° 0 mm 3 mps 752 mmHg 70%
    21:00 -2°C° 0 mm 3 mps 752 mmHg 72%
    22:00 -2°C° 0 mm 2 mps 753 mmHg 73%
    23:00 -3°C° 0 mm 2 mps 753 mmHg 73%

    Tomorrow, 19 January, Saturday

    Time Temperature Precipitation Wind Pressure Humidity
    00:00 -3°C° 0 mm 2 mps 753 mmHg 74%
    01:00 -3°C° 0 mm 2 mps 753 mmHg 74%
    02:00 -3°C° 0 mm 2 mps 753 mmHg 74%
    03:00 -1°C° 0 mm 1 mps 753 mmHg 74%
    04:00 -1°C° 0 mm 1 mps 753 mmHg 74%
    05:00 -1°C° 0 mm 1 mps 753 mmHg 74%
    06:00 -1°C° 0 mm 1 mps 753 mmHg 74%
    07:00 -2°C° 0 mm 1 mps 753 mmHg 74%
    08:00 -1°C° 0 mm 1 mps 753 mmHg 70%
    09:00 0°C° 0 mm 1 mps 753 mmHg 65%
    10:00 -2°C° 0 mm 2 mps 753 mmHg 61%
    11:00 -1°C° 0 mm 2 mps 753 mmHg 61%
    12:00 +1°C° 0 mm 2 mps 752 mmHg 60%
    13:00 +1°C° 0 mm 3 mps 752 mmHg 59%
    14:00 0°C° 0 mm 3 mps 751 mmHg 63%
    15:00 +1°C° 0 mm 2 mps 751 mmHg 66%
    16:00 +1°C° 0 mm 2 mps 751 mmHg 70%
    17:00 -1°C° 0 mm 2 mps 751 mmHg 71%
    18:00 -1°C° 0 mm 3 mps 751 mmHg 72%
    19:00 -2°C° 0 mm 3 mps 751 mmHg 74%
    20:00 -2°C° 0 mm 3 mps 751 mmHg 73%
    21:00 -2°C° 0 mm 3 mps 751 mmHg 73%
    22:00 -2°C° 0 mm 3 mps 750 mmHg 72%
    23:00 -2°C° 0 mm 3 mps 750 mmHg 72%

    Day after tomorrow, 20 January, Sunday

    Time Temperature Precipitation Wind Pressure Humidity
    00:00 -2°C° 0 mm 3 mps 750 mmHg 72%
    01:00 -2°C° 0 mm 3 mps 750 mmHg 72%
    02:00 -2°C° 0 mm 3 mps 749 mmHg 74%
    03:00 -2°C° 0 mm 3 mps 749 mmHg 76%
    04:00 -2°C° 0 mm 3 mps 748 mmHg 78%
    05:00 -2°C° 0.1 mm 3 mps 748 mmHg 80%
    06:00 -2°C° 0.1 mm 3 mps 748 mmHg 83%
    07:00 -3°C° 0.1 mm 2 mps 748 mmHg 86%
    08:00 -2°C° 0 mm 2 mps 749 mmHg 84%
    09:00 -2°C° 0 mm 2 mps 749 mmHg 83%
    10:00 -2°C° 0 mm 2 mps 749 mmHg 82%
    11:00 +1°C° 0 mm 1 mps 749 mmHg 79%
    12:00 +1°C° 0 mm 1 mps 748 mmHg 76%
    13:00 +1°C° 0 mm 0 mps 748 mmHg 74%
    14:00 +2°C° 0 mm 1 mps 748 mmHg 75%
    15:00 +2°C° 0 mm 1 mps 748 mmHg 76%
    16:00 +1°C° 0 mm 1 mps 748 mmHg 77%
    17:00 +1°C° 0 mm 1 mps 749 mmHg 78%
    18:00 -2°C° 0 mm 2 mps 749 mmHg 80%
    19:00 -2°C° 0 mm 2 mps 750 mmHg 81%
    20:00 -3°C° 0 mm 2 mps 750 mmHg 81%
    21:00 -3°C° 0 mm 2 mps 751 mmHg 81%
    22:00 -4°C° 0 mm 3 mps 751 mmHg 81%
    23:00 -4°C° 0 mm 3 mps 751 mmHg 80%

    21 January, Monday

    Time Temperature Precipitation Wind Pressure Humidity
    00:00 -4°C° 0 mm 3 mps 752 mmHg 79%
    01:00 -4°C° 0 mm 3 mps 752 mmHg 78%
    02:00 -4°C° 0 mm 3 mps 752 mmHg 76%
    03:00 -4°C° 0 mm 3 mps 752 mmHg 75%
    04:00 -5°C° 0 mm 3 mps 752 mmHg 74%
    05:00 -5°C° 0 mm 3 mps 753 mmHg 73%
    06:00 -5°C° 0 mm 3 mps 753 mmHg 73%
    07:00 -5°C° 0 mm 3 mps 754 mmHg 72%
    08:00 -4°C° 0 mm 3 mps 754 mmHg 68%
    09:00 -4°C° 0 mm 3 mps 754 mmHg 65%
    10:00 -2°C° 0 mm 3 mps 755 mmHg 61%
    11:00 -1°C° 0 mm 3 mps 754 mmHg 57%
    12:00 -1°C° 0 mm 3 mps 754 mmHg 54%
    13:00 +1°C° 0 mm 2 mps 754 mmHg 51%
    14:00 -1°C° 0 mm 2 mps 754 mmHg 54%
    15:00 -1°C° 0 mm 2 mps 754 mmHg 57%
    16:00 0°C° 0 mm 1 mps 754 mmHg 61%
    17:00 0°C° 0 mm 1 mps 754 mmHg 64%
    18:00 -1°C° 0 mm 1 mps 755 mmHg 67%
    19:00 -3°C° 0 mm 0 mps 755 mmHg 70%
    20:00 -3°C° 0 mm 0 mps 755 mmHg 70%
    21:00 -3°C° 0 mm 0 mps 755 mmHg 71%
    22:00 -3°C° 0 mm 0 mps 755 mmHg 72%
    23:00 -3°C° 0 mm 0 mps 755 mmHg 72%

    22 January, Tuesday

    Time Temperature Precipitation Wind Pressure Humidity
    00:00 -3°C° 0 mm 0 mps 755 mmHg 72%
    01:00 -3°C° 0 mm 0 mps 754 mmHg 72%
    02:00 -3°C° 0 mm 0 mps 754 mmHg 72%
    03:00 -3°C° 0 mm 0 mps 753 mmHg 73%
    04:00 -3°C° 0 mm 1 mps 753 mmHg 73%
    05:00 -3°C° 0 mm 1 mps 752 mmHg 74%
    06:00 -3°C° 0 mm 1 mps 752 mmHg 74%
    07:00 -3°C° 0 mm 1 mps 752 mmHg 75%
    08:00 -4°C° 0 mm 2 mps 751 mmHg 72%
    09:00 -5°C° 0 mm 3 mps 751 mmHg 69%
    10:00 -4°C° 0 mm 3 mps 750 mmHg 66%
    11:00 -3°C° 0 mm 4 mps 749 mmHg 62%
    12:00 -2°C° 0 mm 4 mps 748 mmHg 58%
    13:00 -1°C° 0 mm 5 mps 747 mmHg 54%
    14:00 -2°C° 0 mm 5 mps 746 mmHg 57%
    15:00 -2°C° 0 mm 5 mps 745 mmHg 59%
    16:00 -4°C° 0 mm 5 mps 745 mmHg 62%
    17:00 -4°C° 0 mm 5 mps 744 mmHg 66%
    18:00 -5°C° 0 mm 5 mps 743 mmHg 70%
    19:00 -5°C° 0 mm 5 mps 743 mmHg 75%
    20:00 -5°C° 0 mm 5 mps 742 mmHg 77%
    21:00 -5°C° 0 mm 5 mps 742 mmHg 79%
    22:00 -5°C° 0 mm 5 mps 741 mmHg 81%
    23:00 -5°C° 0 mm 5 mps 740 mmHg 83%

    23 January, Wednesday

    Time Temperature Precipitation Wind Pressure Humidity
    00:00 -5°C° 0 mm 5 mps 739 mmHg 86%
    01:00 -4°C° 0 mm 5 mps 738 mmHg 88%
    02:00 -4°C° 0.3 mm 5 mps 738 mmHg 90%
    03:00 -4°C° 0.3 mm 4 mps 737 mmHg 91%
    04:00 -4°C° 0.3 mm 4 mps 736 mmHg 93%
    05:00 -4°C° 0.4 mm 4 mps 736 mmHg 93%
    06:00 -4°C° 0.4 mm 3 mps 735 mmHg 94%
    07:00 -4°C° 0.4 mm 3 mps 735 mmHg 94%
    08:00 -2°C° 0.1 mm 3 mps 734 mmHg 93%
    09:00 -2°C° 0.1 mm 3 mps 734 mmHg 92%
    10:00 -2°C° 0.1 mm 2 mps 733 mmHg 92%
    11:00 -2°C° 0.4 mm 2 mps 732 mmHg 92%
    12:00 -2°C° 0.4 mm 2 mps 732 mmHg 92%
    13:00 -2°C° 0.4 mm 2 mps 731 mmHg 92%
    14:00 -2°C° 0.7 mm 2 mps 730 mmHg 94%
    15:00 -2°C° 0.7 mm 2 mps 730 mmHg 95%
    16:00 -2°C° 0.7 mm 2 mps 729 mmHg 96%
    17:00 -2°C° 0.8 mm 2 mps 729 mmHg 96%
    18:00 -2°C° 0.8 mm 2 mps 729 mmHg 96%
    19:00 -2°C° 0.8 mm 3 mps 728 mmHg 96%
    20:00 -2°C° 0.5 mm 3 mps 728 mmHg 96%
    21:00 -1°C° 0.5 mm 3 mps 727 mmHg 96%
    22:00 -1°C° 0.5 mm 3 mps 727 mmHg 96%
    23:00 -1°C° 2 mm 3 mps 727 mmHg 96%
    Show more